Location: El Atico
(3.0014°N, 75.4378°W)
Time: 11:50:35
(UTC+00:00)

Cosmos 1825 Rocket - Pass Details

Date: 09 December 2025
Orbit: 597 x 624 km, 82.5° (Epoch: 25 January)

Event Time Altitude Azimuth Distance (km) Brightness Sun altitude
Rises 23:30:52 0° 353° (N) 2,834 6.8 -9.6°
Reaches altitude 10° 23:33:04 10° 352° (N) 1,931 5.9 -10.1°
Maximum altitude 23:37:20 76° 267° (W) 617 3.7 -11.0°
Drops below altitude 10° 23:41:35 10° 181° (S) 1,931 6.4 -12.0°
Sets 23:43:48 0° 179° (S) 2,834 7.3 -12.5°
